This is the latest recevied weather packets stored in our database for station/object N3LF. If no packets are shown the sender has not sent any weather packets the latest 10 day(s).
| Time | Temp. | Humidity | Pressure | Rain* | Wind** | Luminosity | Snow |
|---|---|---|---|---|---|---|---|
| 1788028693 | 33.89° C | 45% | 1022 hPa | 0 mm | - | 651 W/m² | - |
| 1788028393 | 33.89° C | 43% | 1022 hPa | 0 mm | - | 652 W/m² | - |
| 1788028088 | 33.89° C | 46% | 1022 hPa | 0 mm | - | 669 W/m² | - |
| 1788027783 | 33.33° C | 47% | 1022 hPa | 0 mm | - | 670 W/m² | - |
| 1788027483 | 32.78° C | 45% | 1022.1 hPa | 0 mm | - | 672 W/m² | - |
| 1788027178 | 33.33° C | 44% | 1022.3 hPa | 0 mm | - | 674 W/m² | - |
| 1788026878 | 32.22° C | 44% | 1022.2 hPa | 0 mm | - | 677 W/m² | - |
| 1788026573 | 33.89° C | 45% | 1022.2 hPa | 0 mm | - | 680 W/m² | - |
| 1788026272 | 32.78° C | 46% | 1022.3 hPa | 0 mm | - | 681 W/m² | - |
| 1788025968 | 32.78° C | 49% | 1022.4 hPa | 0 mm | - | 683 W/m² | - |
| 1788025667 | 32.22° C | 49% | 1022.5 hPa | 0 mm | - | 680 W/m² | - |
| 1788025366 | 33.33° C | 47% | 1022.6 hPa | 0 mm | - | 681 W/m² | - |
| 1788025062 | 31.11° C | 53% | 1022.7 hPa | 0 mm | - | 677 W/m² | - |
| 1788024756 | 31.11° C | 54% | 1022.8 hPa | 0 mm | - | 676 W/m² | - |
| 1788024453 | 30.56° C | 54% | 1022.6 hPa | 0 mm | - | 674 W/m² | - |
| 1788024152 | 31.11° C | 54% | 1022.6 hPa | 0 mm | - | 671 W/m² | - |
| 1788023848 | 31.11° C | 55% | 1022.6 hPa | 0 mm | - | 670 W/m² | - |
| 1788023543 | 31.11° C | 54% | 1022.6 hPa | 0 mm | - | 670 W/m² | - |
| 1788023239 | 30.56° C | 55% | 1022.7 hPa | 0 mm | - | 666 W/m² | - |
| 1788022938 | 30.56° C | 56% | 1022.6 hPa | 0 mm | - | 659 W/m² | - |
| 1788022636 | 31.67° C | 57% | 1022.9 hPa | 0 mm | - | 648 W/m² | - |
| 1788022330 | 31.67° C | 58% | 1023 hPa | 0 mm | - | 688 W/m² | - |
| 1788022029 | 31.67° C | 54% | 1023.1 hPa | 0 mm | - | 656 W/m² | - |
| 1788021724 | 30.56° C | 61% | 1023 hPa | 0 mm | - | 648 W/m² | - |
| 1788021422 | 30° C | 64% | 1023 hPa | 0 mm | - | 642 W/m² | - |
* Rain latest hour (hover to see other rain measurements)
** Current wind speed in m/s (hover to see current wind gust speed)